Atlanta Fulton, GA

5:19 PM EST on November 11, 2019 (GMT -0500)
Fulton County-Brown

Weather History for KFTY - September, 2019

Change the Weather History Date:

Friday, September 6, 2019

  Actual Average Record
Temperature  
Mean Temperature 81 °F 76 °F  
Max Temperature 95 °F 86 °F 97 °F (1999)
Min Temperature 67 °F 66 °F 51 °F (1997)
Degree Days  
Heating Degree Days 0 0  
Month to date heating degree days 0 0  
Since 1 July heating degree days 0 0  
Cooling Degree Days 16 11  
Month to date cooling degree days 97 68  
Year to date cooling degree days 1813 1505  
Growing Degree Days 30 (Base 50)    
Moisture  
Dew Point 58 °F    
Average Humidity 49    
Maximum Humidity 81    
Minimum Humidity 17    
Precipitation  
Precipitation 0.00 in 0.12 in 1.63 in (1970)
Month to date precipitation 0.00 0.70  
Year to date precipitation 30.29 36.12  
Sea Level Pressure  
Sea Level Pressure 29.90 in    
Wind  
Wind Speed 5 mph (NW)    
Max Wind Speed 17 mph    
Max Gust Speed 27 mph    
Visibility 10 miles    
Events      
T = Trace of Precipitation, MM = Missing Value Source: NWS Daily Summary

Daily Weather History Graph

Daily Weather History Graph

Search for Another Location

Airport or City:

Astronomy

Sep. 06, 2019 Rise Set
Actual Time 7:15 AM EDT 7:57 PM EDT
Civil Twilight 6:49 AM EDT 8:22 PM EDT
Nautical Twilight 6:20 AM EDT 8:52 PM EDT
Astronomical Twilight 5:49 AM EDT 9:22 PM EDT
Moon 3:01 PM EDT (9/6) 12:33 AM EDT (9/6)
Length of Visible Light 13h 32m
Length of Day
12h 42m
First Quarter, 55% of the Moon is Illuminated
Sep 6
First Quarter
Sep 14
Full
Sep 21
Last Quarter
Sep 28
New
Oct 5
First Quarter

Hourly Weather History & Observations

Time (EDT) Temp. Heat Index Dew Point Humidity Pressure Visibility Wind Dir Wind Speed Gust Speed Precip Events Conditions
12:53 AM 75.9 °F - 59.0 °F 56% 29.88 in 10.0 mi NW 4.6 mph - N/A   Clear
1:53 AM 75.0 °F - 59.0 °F 57% 29.87 in 10.0 mi Variable 3.5 mph - N/A   Clear
2:53 AM 72.0 °F - 59.0 °F 64% 29.87 in 10.0 mi Variable 3.5 mph - N/A   Clear
3:53 AM 71.1 °F - 60.1 °F 68% 29.86 in 10.0 mi NW 4.6 mph - N/A   Clear
4:53 AM 70.0 °F - 60.1 °F 71% 29.87 in 10.0 mi NNW 4.6 mph - N/A   Clear
5:53 AM 69.1 °F - 60.1 °F 73% 29.89 in 10.0 mi Calm Calm - N/A   Clear
6:53 AM 66.9 °F - 60.1 °F 79% 29.90 in 10.0 mi Calm Calm - N/A   Clear
7:53 AM 66.9 °F - 60.1 °F 79% 29.92 in 10.0 mi Calm Calm - N/A   Clear
8:53 AM 70.0 °F - 60.1 °F 71% 29.94 in 10.0 mi Variable 6.9 mph - N/A   Clear
9:53 AM 75.9 °F - 61.0 °F 60% 29.94 in 10.0 mi NNW 5.8 mph - N/A   Clear
10:53 AM 80.1 °F 81.1 °F 61.0 °F 52% 29.94 in 10.0 mi Variable 5.8 mph - N/A   Clear
11:53 AM 84.0 °F 84.4 °F 61.0 °F 46% 29.93 in 10.0 mi NW 8.1 mph - N/A   Clear
12:53 PM 86.0 °F 85.7 °F 60.1 °F 41% 29.91 in 10.0 mi NW 6.9 mph - N/A   Clear
1:53 PM 90.0 °F 88.8 °F 57.9 °F 34% 29.90 in 10.0 mi North 8.1 mph - N/A   Clear
2:53 PM 91.0 °F - 51.1 °F 25% 29.88 in 10.0 mi NNW 12.7 mph 20.7 mph N/A   Clear
3:53 PM 93.0 °F - 45.0 °F 19% 29.87 in 10.0 mi NW 15.0 mph 21.9 mph N/A   Clear
4:53 PM 93.0 °F - 43.0 °F 18% 29.86 in 10.0 mi North 10.4 mph 23.0 mph N/A   Clear
5:53 PM 91.9 °F 89.5 °F 53.1 °F 27% 29.87 in 10.0 mi NW 12.7 mph 21.9 mph N/A   Clear
6:53 PM 90.0 °F 88.1 °F 55.9 °F 31% 29.88 in 10.0 mi NNW 8.1 mph - N/A   Clear
7:53 PM 84.9 °F 83.9 °F 57.0 °F 38% 29.89 in 10.0 mi NW 5.8 mph - N/A   Clear
8:53 PM 82.0 °F 82.0 °F 57.9 °F 44% 29.90 in 10.0 mi WNW 3.5 mph - N/A   Clear
9:53 PM 75.9 °F - 61.0 °F 60% 29.91 in 10.0 mi Calm Calm - N/A   Clear
10:53 PM 75.0 °F - 61.0 °F 62% 29.92 in 10.0 mi Calm Calm - N/A   Clear
11:53 PM 73.9 °F - 60.1 °F 62% 29.93 in 10.0 mi Calm Calm - N/A   Clear